Terminal Aerodrome Forecast
Issued by NWS

Home | Current Version | Previous Version | Text Only | Print | Product List | Glossary On
Versions: 1 2 3 4 5 6 7 8 9 10 11 12 13 14 15 16 17 18 19 20
784
FTUS41 KPHI 270107 AAA
TAFPNE
TAF AMD
KPNE 270107Z 2701/2724 08012KT 3SM BR OVC005
      TEMPO 2701/2703 6SM BR OVC008
     FM270300 08008KT 2SM BR OVC005
     FM270800 11006KT 4SM BR OVC005
      TEMPO 2709/2713 2SM -SHRA BR
     FM271300 20006KT P6SM BKN015
     FM271700 23010KT P6SM SCT030 BKN150
     FM272100 20006KT P6SM VCSH BKN050=

USA.gov is the U.S. government's official web portal to all federal, state and local government web resources and services.